Location: Góry Miechowskie
(50.3599°N, 20.1803°E)
Time: 22:21:15
(UTC+00:00)

Cosmos 1455 Rocket - Visible Passes

Search period start: 15 September 2024 00:00
Search period end: 25 September 2024 00:00
Orbit: 600 x 625 km, 82.5° (Epoch: 14 September)

Date Brightness Start Highest point End Pass type
(mag) Time Alt. Az. Time Alt. Az. Time Alt. Az.
15 Sep 3.9 01:11:49 44° N 01:11:49 44° N 01:14:53 10° N visible
15 Sep 5.2 02:48:52 10° WNW 02:49:08 10° WNW 02:49:48 10° NW visible
15 Sep 5.6 23:50:22 17° NE 23:50:22 17° NE 23:51:51 10° NE visible
16 Sep 4.2 01:27:24 33° NNW 01:27:24 33° NNW 01:30:12 10° N visible
17 Sep 5.4 00:05:54 22° NE 00:05:54 22° NE 00:07:42 10° NNE visible
17 Sep 4.6 01:42:56 23° NW 01:42:56 23° NW 01:45:19 10° N visible
18 Sep 5.1 00:21:26 25° NNE 00:21:26 25° NNE 00:23:20 10° NNE visible
18 Sep 5.0 01:58:28 16° NW 01:58:28 16° NW 02:00:13 10° NNW visible
19 Sep 5.0 00:36:56 25° N 00:36:56 25° N 00:38:48 10° N visible
19 Sep 5.4 02:13:58 11° NW 02:13:58 11° NW 02:14:28 10° NW visible
19 Sep 6.1 23:15:24 11° NE 23:15:24 11° NE 23:15:34 10° NE visible
20 Sep 5.1 00:52:26 22° N 00:52:26 22° N 00:54:07 10° N visible
20 Sep 6.0 23:30:52 13° NNE 23:30:52 13° NNE 23:31:30 10° NNE visible
21 Sep 5.3 01:07:54 18° NNW 01:07:54 18° NNW 01:09:17 10° N visible
21 Sep 5.9 23:46:20 15° NNE 23:46:20 15° NNE 23:47:10 10° NNE visible
22 Sep 5.5 01:23:22 14° NNW 01:23:22 14° NNW 01:24:14 10° NNW visible
23 Sep 5.8 00:01:46 16° N 00:01:46 16° N 00:02:38 10° N visible
24 Sep 5.8 00:17:12 15° N 00:17:12 15° N 00:17:59 10° N visible
